DW8935 Weather Reports


time (UTC)temp
F
wind
direction
speed
knots
gust
knots
rain 1hr
in
rain 24hr
in
rain mn
in
humidity
%
barometer
mb
20260904073024 61 325 3.5 9.6 0.00 0.00 0.00 63 1014.5
20260904071520 61 319 4.3 8.7 0.00 0.00 0.00 62 1014.4
20260904070020 61 328 6.1 10.4 0.00 0.00 0.00 61 1014.4
20260904064519 61 5 6.1 13.9 0.00 0.00 0.00 61 1014.6
20260904063022 61 305 8.7 19.1 0.00 0.00 0.00 60 1014.8
20260904061525 62 326 7.0 12.2 0.00 0.00 0.00 59 1015.1
20260904060020 62 331 6.1 16.5 0.00 0.00 0.00 58 1015.2
20260904054516 63 305 7.0 13.0 0.00 0.00 0.00 58 1015.3
20260904053022 63 311 5.2 12.2 0.00 0.00 0.00 59 1015.5
20260904051526 62 331 6.1 13.0 0.00 0.00 0.00 59 1015.4
20260904050011 63 309 7.0 14.8 0.00 0.00 0.00 58 1015.7
20260904044510 63 296 6.1 10.4 0.00 0.00 0.00 58 1015.8
20260904043009 64 346 7.0 15.6 0.00 0.00 0.00 56 1015.8
20260904041510 64 321 7.0 15.6 0.00 0.00 0.00 55 1015.8
20260904040015 64 335 5.2 13.0 0.00 0.00 0.00 54 1015.8
20260904034506 64 341 7.0 14.8 0.00 0.00 0.00 53 1016.2
20260904033002 63 300 7.8 15.6 0.00 0.00 0.00 52 1016.3
20260904031600 63 308 6.1 13.9 0.00 0.00 0.00 53 1016.7
20260904030057 63 312 7.8 13.9 0.00 0.00 0.00 53 1016.9
20260904024555 62 292 6.1 14.8 0.00 0.00 0.00 52 1017.0
20260904021552 62 355 6.1 13.9 0.00 0.00 0.00 52 1017.4
20260904020051 63 275 4.3 13.0 0.00 0.00 0.00 51 1017.7
20260904014602 62 302 5.2 12.2 0.00 0.00 0.00 52 1017.9
20260904011543 61 323 7.8 13.9 0.00 0.00 0.00 52 1018.6
20260904010050 61 314 7.0 12.2 0.00 0.00 0.00 52 1019.0
20260904004538 60 251 7.0 16.5 0.00 0.00 0.00 53 1019.2
20260904001540 59 303 6.1 13.9 0.00 0.00 0.00 56 1019.4
20260904000043 58 292 5.2 13.0 0.00 0.00 0.00 57 1019.4
20260903234530 57 294 7.0 13.9 0.00 0.00 0.00 57 1020.0
20260903231526 56 266 6.1 11.3 0.00 0.00 0.00 60 1020.0
20260903230024 55 328 5.2 12.2 0.00 0.00 0.00 62 1020.1
20260903224518 54 308 3.5 8.7 0.00 0.00 0.00 65 1020.1
20260903221512 49 313 0.0 2.6 0.00 0.00 0.00 76 1019.6
20260903220011 48 323 1.7 6.1 0.00 0.00 0.00 77 1019.6
20260903214517 47 294 0.9 4.3 0.00 0.00 0.00 79 1019.6
20260903211508 46 337 0.0 3.5 0.00 0.00 0.00 79 1019.2
20260903210008 46 319 0.0 3.5 0.00 0.00 0.00 79 1019.0
20260903204506 46 327 0.0 3.5 0.00 0.00 0.00 79 1019.0
20260903201504 47 297 0.0 5.2 0.00 0.00 0.00 78 1018.6
20260903200005 47 306 0.9 4.3 0.00 0.00 0.00 78 1018.7
20260903194603 48 315 0.0 5.2 0.00 0.00 0.00 78 1018.6
20260903191559 48 325 0.9 6.1 0.00 0.00 0.00 78 1018.8
20260903190056 48 311 1.7 7.0 0.00 0.00 0.00 79 1018.7
20260903184554 48 284 1.7 6.1 0.00 0.00 0.00 79 1018.6
20260903181553 49 308 2.6 7.0 0.00 0.00 0.00 80 1018.6
20260903180050 49 310 0.9 7.0 0.00 0.00 0.00 80 1018.5
20260903174547 49 286 0.9 7.0 0.00 0.00 0.00 81 1018.5
20260903171552 49 309 0.9 5.2 0.00 0.00 0.00 81 1018.6
20260903170042 49 306 0.0 5.2 0.00 0.00 0.00 81 1018.8
20260903164544 49 302 1.7 5.2 0.00 0.00 0.00 81 1018.9
20260903161536 50 286 0.0 6.1 0.00 0.00 0.00 79 1019.1
20260903160054 50 313 0.9 5.2 0.00 0.00 0.00 78 1019.2
20260903154532 51 291 0.9 6.1 0.00 0.00 0.00 78 1019.3
20260903151531 51 314 0.0 6.1 0.00 0.00 0.00 78 1019.4
20260903150031 51 317 2.6 6.1 0.00 0.00 0.00 78 1019.4
20260903144528 51 311 2.6 6.1 0.00 0.00 0.00 78 1019.4
20260903141525 51 311 1.7 7.0 0.00 0.00 0.00 79 1019.5
20260903140022 51 328 0.9 6.1 0.00 0.00 0.00 79 1019.5
20260903134521 51 318 1.7 5.2 0.00 0.00 0.00 78 1019.6
20260903131520 52 324 1.7 6.1 0.00 0.00 0.00 77 1019.7
20260903130019 52 299 0.9 6.1 0.00 0.00 0.00 77 1019.6
20260903124518 52 320 2.6 7.0 0.00 0.00 0.00 77 1019.6
20260903121514 52 319 0.9 3.5 0.00 0.00 0.00 73 1019.4
20260903120013 52 323 0.9 4.3 0.00 0.00 0.00 73 1019.3
20260903114512 53 269 2.6 6.1 0.00 0.00 0.00 72 1019.1
20260903111509 54 290 0.9 5.2 0.00 0.00 0.00 70 1018.8
20260903110009 54 270 1.7 5.2 0.00 0.00 0.00 69 1018.8
20260903104507 54 252 2.6 10.4 0.00 0.00 0.00 69 1018.5
20260903101504 54 264 0.9 4.3 0.00 0.00 0.00 68 1018.1
20260903100002 55 239 0.9 6.1 0.00 0.00 0.00 68 1017.8
20260903094501 55 285 0.9 6.1 0.00 0.00 0.00 66 1017.6
20260903091556 56 236 2.6 7.8 0.00 0.00 0.00 66 1017.1
20260903090059 56 220 1.7 8.7 0.00 0.00 0.00 66 1016.9
20260903084555 57 265 2.6 9.6 0.00 0.00 0.00 65 1016.7
20260903081552 58 280 3.5 8.7 0.00 0.00 0.00 63 1016.3
20260903080103 58 216 3.5 8.7 0.00 0.00 0.00 62 1016.0
20260903074602 59 244 4.3 11.3 0.00 0.00 0.00 62 1015.9